Time,TemperatureF,DewpointF,PressureIn,WindDirection,WindDirectionDegrees,WindSpeedMPH,WindSpeedGustMPH,Humidity,HourlyPrecipIn,Conditions,Clouds,dailyrainin,SoftwareType,DateUTC
2013-03-22 00:11:00,33.4,31.0,29.97,East,89,1.0,2.0,92,0.05,,,0.07,weatherlink.com 1.10,2013-03-22 05:11:00,
2013-03-22 00:27:00,33.2,31.0,29.95,ENE,68,5.0,7.0,93,0.08,,,0.02,weatherlink.com 1.10,2013-03-22 05:27:00,
2013-03-22 00:41:00,33.4,32.0,29.93,NE,35,3.0,7.0,94,0.11,,,0.06,weatherlink.com 1.10,2013-03-22 05:41:00,
2013-03-22 00:56:00,33.7,32.0,29.95,South,174,0.0,7.0,94,0.14,,,0.09,weatherlink.com 1.10,2013-03-22 05:56:00,
2013-03-22 01:11:00,34.1,33.0,29.94,South,170,1.0,9.0,94,0.13,,,0.11,weatherlink.com 1.10,2013-03-22 06:11:00,
2013-03-22 01:27:00,34.3,33.0,29.95,SSE,160,1.0,6.0,94,0.10,,,0.12,weatherlink.com 1.10,2013-03-22 06:27:00,
2013-03-22 01:42:00,34.3,33.0,29.94,NNE,31,3.0,9.0,94,0.08,,,0.14,weatherlink.com 1.10,2013-03-22 06:42:00,
2013-03-22 01:59:00,34.4,33.0,29.93,ENE,76,5.0,10.0,94,0.08,,,0.18,weatherlink.com 1.10,2013-03-22 06:59:00,
2013-03-22 02:12:00,34.3,33.0,29.92,SSE,152,1.0,8.0,94,0.11,,,0.22,weatherlink.com 1.10,2013-03-22 07:12:00,
2013-03-22 02:27:00,34.6,33.0,29.93,South,173,4.0,7.0,94,0.11,,,0.23,weatherlink.com 1.10,2013-03-22 07:27:00,
2013-03-22 02:42:00,34.8,33.0,29.93,ENE,69,1.0,7.0,94,0.10,,,0.24,weatherlink.com 1.10,2013-03-22 07:42:00,
2013-03-22 02:57:00,35.1,34.0,29.92,SE,141,5.0,7.0,94,0.06,,,0.24,weatherlink.com 1.10,2013-03-22 07:57:00,
2013-03-22 03:12:00,35.3,34.0,29.92,SSE,154,2.0,7.0,94,0.04,,,0.26,weatherlink.com 1.10,2013-03-22 08:12:00,
2013-03-22 03:27:00,35.5,34.0,29.91,East,98,1.0,7.0,94,0.03,,,0.26,weatherlink.com 1.10,2013-03-22 08:27:00,
2013-03-22 03:42:00,35.6,34.0,29.91,SE,139,1.0,7.0,94,0.03,,,0.27,weatherlink.com 1.10,2013-03-22 08:42:00,
2013-03-22 03:57:00,35.8,34.0,29.90,NNE,31,2.0,4.0,94,0.03,,,0.27,weatherlink.com 1.10,2013-03-22 08:57:00,
2013-03-22 04:12:00,35.9,34.0,29.89,NNE,31,1.0,6.0,94,0.01,,,0.27,weatherlink.com 1.10,2013-03-22 09:12:00,
2013-03-22 04:27:00,35.9,34.0,29.89,SE,135,3.0,7.0,94,0.01,,,0.27,weatherlink.com 1.10,2013-03-22 09:27:00,
2013-03-22 04:42:00,36.0,35.0,29.89,SE,129,1.0,11.0,94,0.00,,,0.27,weatherlink.com 1.10,2013-03-22 09:42:00,
2013-03-22 04:57:00,36.2,35.0,29.88,South,188,2.0,6.0,95,0.00,,,0.27,weatherlink.com 1.10,2013-03-22 09:57:00,
2013-03-22 05:12:00,36.3,35.0,29.90,NE,55,1.0,5.0,94,0.00,,,0.27,weatherlink.com 1.10,2013-03-22 10:12:00,
2013-03-22 05:27:00,36.4,35.0,29.89,East,95,3.0,8.0,94,0.00,,,0.27,weatherlink.com 1.10,2013-03-22 10:27:00,
2013-03-22 05:42:00,36.6,35.0,29.90,East,94,1.0,7.0,94,0.00,,,0.27,weatherlink.com 1.10,2013-03-22 10:42:00,
2013-03-22 05:57:00,36.6,35.0,29.91,ENE,74,0.0,6.0,94,0.00,,,0.27,weatherlink.com 1.10,2013-03-22 10:57:00,
2013-03-22 06:12:00,36.7,35.0,29.91,East,95,1.0,5.0,94,0.01,,,0.28,weatherlink.com 1.10,2013-03-22 11:12:00,
2013-03-22 06:27:00,36.8,35.0,29.92,SSE,154,1.0,5.0,94,0.02,,,0.29,weatherlink.com 1.10,2013-03-22 11:27:00,
2013-03-22 06:42:00,36.9,35.0,29.93,ENE,63,2.0,4.0,94,0.02,,,0.29,weatherlink.com 1.10,2013-03-22 11:42:00,
2013-03-22 06:57:00,37.1,36.0,29.93,ESE,121,1.0,5.0,94,0.03,,,0.30,weatherlink.com 1.10,2013-03-22 11:57:00,
2013-03-22 07:12:00,36.9,35.0,29.93,ESE,112,3.0,6.0,94,0.02,,,0.30,weatherlink.com 1.10,2013-03-22 12:12:00,
2013-03-22 07:27:00,36.9,35.0,29.93,NW,323,1.0,4.0,94,0.01,,,0.30,weatherlink.com 1.10,2013-03-22 12:27:00,
2013-03-22 07:42:00,36.8,35.0,29.92,East,89,2.0,4.0,94,0.01,,,0.30,weatherlink.com 1.10,2013-03-22 12:42:00,
2013-03-22 07:57:00,37.0,36.0,29.93,ESE,109,3.0,7.0,94,0.00,,,0.30,weatherlink.com 1.10,2013-03-22 12:57:00,
2013-03-22 08:12:00,37.1,36.0,29.93,SSE,153,2.0,6.0,94,0.00,,,0.30,weatherlink.com 1.10,2013-03-22 13:12:00,
2013-03-22 08:27:00,38.2,36.0,29.93,ESE,121,4.0,8.0,93,0.00,,,0.30,weatherlink.com 1.10,2013-03-22 13:27:00,
2013-03-22 08:42:00,38.8,37.0,29.93,SSW,192,1.0,7.0,92,0.00,,,0.30,weatherlink.com 1.10,2013-03-22 13:42:00,
2013-03-22 08:57:00,39.2,37.0,29.92,SE,146,3.0,7.0,91,0.00,,,0.30,weatherlink.com 1.10,2013-03-22 13:57:00,
2013-03-22 09:14:00,39.4,37.0,29.94,SE,140,0.0,7.0,90,0.00,,,0.30,weatherlink.com 1.10,2013-03-22 14:14:00,
2013-03-22 09:27:00,39.9,38.0,29.94,SE,143,2.0,6.0,91,0.00,,,0.30,weatherlink.com 1.10,2013-03-22 14:27:00,
2013-03-22 09:42:00,40.3,38.0,29.94,ESE,112,2.0,8.0,90,0.00,,,0.30,weatherlink.com 1.10,2013-03-22 14:42:00,
2013-03-22 09:57:00,41.0,38.0,29.94,NW,306,2.0,7.0,90,0.00,,,0.30,weatherlink.com 1.10,2013-03-22 14:57:00,
2013-03-22 10:12:00,41.4,38.0,29.94,NE,55,3.0,9.0,89,0.00,,,0.30,weatherlink.com 1.10,2013-03-22 15:12:00,
2013-03-22 10:27:00,41.8,39.0,29.95,South,183,4.0,5.0,89,0.00,,,0.30,weatherlink.com 1.10,2013-03-22 15:27:00,
2013-03-22 10:42:00,42.1,39.0,29.95,ENE,72,1.0,7.0,90,0.00,,,0.30,weatherlink.com 1.10,2013-03-22 15:42:00,
2013-03-22 10:57:00,42.5,39.0,29.96,NE,39,0.0,5.0,88,0.00,,,0.30,weatherlink.com 1.10,2013-03-22 15:57:00,
2013-03-22 11:13:00,42.8,40.0,29.95,SSE,166,0.0,4.0,89,0.00,,,0.30,weatherlink.com 1.10,2013-03-22 16:13:00,
2013-03-22 11:28:00,43.8,41.0,29.94,North,10,2.0,8.0,88,0.00,,,0.30,weatherlink.com 1.10,2013-03-22 16:28:00,
2013-03-22 11:43:00,43.6,41.0,29.93,SSE,152,1.0,8.0,90,0.01,,,0.31,weatherlink.com 1.10,2013-03-22 16:43:00,
2013-03-22 11:58:00,43.1,41.0,29.93,ESE,106,3.0,5.0,91,0.01,,,0.31,weatherlink.com 1.10,2013-03-22 16:58:00,
2013-03-22 12:13:00,43.3,41.0,29.93,ESE,123,1.0,5.0,92,0.01,,,0.31,weatherlink.com 1.10,2013-03-22 17:13:00,
2013-03-22 12:28:00,43.5,41.0,29.92,SSW,198,1.0,5.0,91,0.01,,,0.31,weatherlink.com 1.10,2013-03-22 17:28:00,
2013-03-22 12:43:00,43.5,41.0,29.92,East,81,2.0,4.0,91,0.00,,,0.31,weatherlink.com 1.10,2013-03-22 17:43:00,
2013-03-22 12:58:00,43.7,41.0,29.91,NNE,23,0.0,3.0,91,0.00,,,0.31,weatherlink.com 1.10,2013-03-22 17:58:00,
2013-03-22 13:13:00,43.8,41.0,29.91,East,95,2.0,6.0,90,0.00,,,0.31,weatherlink.com 1.10,2013-03-22 18:13:00,
2013-03-22 13:28:00,44.1,41.0,29.90,ESE,115,3.0,9.0,90,0.00,,,0.31,weatherlink.com 1.10,2013-03-22 18:28:00,
2013-03-22 13:43:00,44.2,42.0,29.90,SE,135,2.0,5.0,90,0.00,,,0.31,weatherlink.com 1.10,2013-03-22 18:43:00,
2013-03-22 13:58:00,44.6,42.0,29.89,SE,134,1.0,5.0,90,0.00,,,0.31,weatherlink.com 1.10,2013-03-22 18:58:00,
2013-03-22 14:13:00,45.1,42.0,29.89,SSE,162,3.0,7.0,88,0.00,,,0.31,weatherlink.com 1.10,2013-03-22 19:13:00,
2013-03-22 14:28:00,45.4,42.0,29.88,ESE,116,5.0,9.0,87,0.00,,,0.31,weatherlink.com 1.10,2013-03-22 19:28:00,
2013-03-22 14:43:00,45.5,42.0,29.87,South,182,3.0,8.0,87,0.00,,,0.31,weatherlink.com 1.10,2013-03-22 19:43:00,
2013-03-22 14:58:00,45.7,42.0,29.86,SE,125,4.0,7.0,87,0.00,,,0.31,weatherlink.com 1.10,2013-03-22 19:58:00,
2013-03-22 15:13:00,45.6,42.0,29.86,SSE,162,3.0,9.0,88,0.00,,,0.31,weatherlink.com 1.10,2013-03-22 20:13:00,
2013-03-22 15:29:00,45.4,43.0,29.86,East,90,7.0,9.0,90,0.00,,,0.31,weatherlink.com 1.10,2013-03-22 20:29:00,
2013-03-22 15:43:00,45.3,43.0,29.85,ESE,119,4.0,8.0,91,0.00,,,0.31,weatherlink.com 1.10,2013-03-22 20:43:00,
2013-03-22 15:58:00,45.1,43.0,29.85,ESE,114,0.0,6.0,92,0.00,,,0.31,weatherlink.com 1.10,2013-03-22 20:58:00,
2013-03-22 16:13:00,45.3,43.0,29.85,SE,146,3.0,7.0,93,0.00,,,0.31,weatherlink.com 1.10,2013-03-22 21:13:00,
2013-03-22 16:28:00,45.4,44.0,29.85,East,85,1.0,6.0,93,0.00,,,0.31,weatherlink.com 1.10,2013-03-22 21:28:00,
2013-03-22 16:43:00,45.5,43.0,29.86,NNE,25,1.0,5.0,92,0.00,,,0.31,weatherlink.com 1.10,2013-03-22 21:43:00,
2013-03-22 16:58:00,45.8,44.0,29.86,ENE,71,1.0,4.0,92,0.00,,,0.31,weatherlink.com 1.10,2013-03-22 21:58:00,
2013-03-22 17:13:00,45.8,43.0,29.87,NNE,31,1.0,3.0,91,0.00,,,0.31,weatherlink.com 1.10,2013-03-22 22:13:00,
2013-03-22 17:28:00,45.6,44.0,29.87,ENE,57,2.0,4.0,92,0.00,,,0.31,weatherlink.com 1.10,2013-03-22 22:28:00,
2013-03-22 17:43:00,45.6,44.0,29.87,East,100,0.0,3.0,92,0.00,,,0.31,weatherlink.com 1.10,2013-03-22 22:43:00,
2013-03-22 17:58:00,45.5,43.0,29.88,NNE,31,2.0,4.0,92,0.00,,,0.31,weatherlink.com 1.10,2013-03-22 22:58:00,
2013-03-22 18:13:00,45.5,44.0,29.88,NNE,26,1.0,4.0,93,0.00,,,0.31,weatherlink.com 1.10,2013-03-22 23:13:00,
2013-03-22 18:28:00,45.4,44.0,29.88,ENE,67,1.0,5.0,93,0.00,,,0.31,weatherlink.com 1.10,2013-03-22 23:28:00,
2013-03-22 18:43:00,45.3,44.0,29.88,NNE,24,2.0,3.0,94,0.00,,,0.31,weatherlink.com 1.10,2013-03-22 23:43:00,
2013-03-22 18:58:00,45.1,44.0,29.88,SE,127,0.0,4.0,94,0.00,,,0.31,weatherlink.com 1.10,2013-03-22 23:58:00,
2013-03-22 19:13:00,45.0,43.0,29.88,ENE,76,0.0,3.0,94,0.00,,,0.31,weatherlink.com 1.10,2013-03-23 00:13:00,
2013-03-22 19:28:00,44.9,43.0,29.89,NW,320,2.0,5.0,94,0.00,,,0.31,weatherlink.com 1.10,2013-03-23 00:28:00,
2013-03-22 19:43:00,44.9,43.0,29.89,NE,38,1.0,4.0,94,0.00,,,0.31,weatherlink.com 1.10,2013-03-23 00:43:00,
2013-03-22 19:58:00,44.9,43.0,29.89,ENE,61,0.0,4.0,94,0.00,,,0.31,weatherlink.com 1.10,2013-03-23 00:58:00,
2013-03-22 20:13:00,44.9,43.0,29.89,SSW,210,1.0,4.0,94,0.00,,,0.31,weatherlink.com 1.10,2013-03-23 01:13:00,
2013-03-22 20:28:00,44.9,43.0,29.89,ENE,60,1.0,6.0,94,0.00,,,0.31,weatherlink.com 1.10,2013-03-23 01:28:00,
2013-03-22 20:43:00,44.9,43.0,29.90,NE,50,1.0,4.0,94,0.00,,,0.31,weatherlink.com 1.10,2013-03-23 01:43:00,
2013-03-22 20:58:00,45.0,43.0,29.90,NE,36,1.0,4.0,93,0.00,,,0.31,weatherlink.com 1.10,2013-03-23 01:58:00,
2013-03-22 21:13:00,45.0,43.0,29.91,NE,47,3.0,4.0,93,0.00,,,0.31,weatherlink.com 1.10,2013-03-23 02:13:00,
2013-03-22 21:28:00,45.0,43.0,29.90,ENE,69,3.0,4.0,93,0.00,,,0.31,weatherlink.com 1.10,2013-03-23 02:28:00,
2013-03-22 21:43:00,45.0,43.0,29.90,East,98,2.0,4.0,93,0.00,,,0.31,weatherlink.com 1.10,2013-03-23 02:43:00,
2013-03-22 21:58:00,45.0,43.0,29.91,ESE,120,2.0,4.0,93,0.00,,,0.31,weatherlink.com 1.10,2013-03-23 02:58:00,
2013-03-22 22:13:00,45.0,43.0,29.92,NE,45,1.0,2.0,93,0.00,,,0.31,weatherlink.com 1.10,2013-03-23 03:13:00,
2013-03-22 22:28:00,45.0,43.0,29.92,ENE,64,0.0,5.0,93,0.00,,,0.31,weatherlink.com 1.10,2013-03-23 03:28:00,
2013-03-22 22:44:00,45.0,43.0,29.91,ENE,77,2.0,4.0,94,0.00,,,0.31,weatherlink.com 1.10,2013-03-23 03:44:00,
2013-03-22 22:58:00,44.8,43.0,29.91,NE,44,1.0,3.0,94,0.00,,,0.31,weatherlink.com 1.10,2013-03-23 03:58:00,
2013-03-22 23:13:00,44.8,43.0,29.91,NE,52,0.0,3.0,94,0.00,,,0.31,weatherlink.com 1.10,2013-03-23 04:13:00,
2013-03-22 23:28:00,44.9,44.0,29.91,ENE,62,1.0,3.0,95,0.00,,,0.31,weatherlink.com 1.10,2013-03-23 04:28:00,
2013-03-22 23:43:00,44.9,44.0,29.90,NNE,25,1.0,4.0,95,0.00,,,0.31,weatherlink.com 1.10,2013-03-23 04:43:00,
2013-03-22 23:58:00,44.9,44.0,29.89,East,100,1.0,3.0,95,0.00,,,0.31,weatherlink.com 1.10,2013-03-23 04:58:00,